This is the latest recevied weather packets stored in our database for station/object SR3WXA. If no packets are shown the sender has not sent any weather packets the latest 10 day(s).
| Time | Temp. | Humidity | Pressure | Rain* | Wind** | Luminosity | Snow |
|---|---|---|---|---|---|---|---|
| 1788610602 | 16.11° C | 91% | 1014 hPa | 0.25 mm | - | 621 W/m² | - |
| 1788610398 | 16.11° C | 92% | 1014.1 hPa | 0.25 mm | - | 731 W/m² | - |
| 1788610302 | 16.11° C | 92% | 1014.1 hPa | 0.25 mm | - | 731 W/m² | - |
| 1788610149 | 15.56° C | 92% | 1014.1 hPa | 0.25 mm | - | 156 W/m² | - |
| 1788610002 | 15.56° C | 92% | 1014.1 hPa | 0.25 mm | - | 156 W/m² | - |
| 1788609748 | 15.56° C | 93% | 1014.1 hPa | 0.25 mm | - | 144 W/m² | - |
| 1788609702 | 15.56° C | 93% | 1014.1 hPa | 0.25 mm | - | 144 W/m² | - |
| 1788609472 | 15° C | 92% | 1014.1 hPa | 0.25 mm | - | 606 W/m² | - |
| 1788609402 | 15° C | 92% | 1014.1 hPa | 0.25 mm | - | 606 W/m² | - |
| 1788608900 | 14.44° C | 91% | 1014.2 hPa | 0.25 mm | - | 209 W/m² | - |
| 1788608811 | 14.44° C | 91% | 1014.2 hPa | 0.25 mm | - | 209 W/m² | - |
| 1788608324 | 14.44° C | 90% | 1014.4 hPa | 0.25 mm | - | 105 W/m² | - |
| 1788608212 | 14.44° C | 90% | 1014.4 hPa | 0.25 mm | - | 105 W/m² | - |
| 1788607969 | 14.44° C | 90% | 1014.5 hPa | 0 mm | - | 111 W/m² | - |
| 1788607912 | 14.44° C | 90% | 1014.5 hPa | 0 mm | - | 111 W/m² | - |
| 1788607681 | 14.44° C | 89% | 1014.5 hPa | 0 mm | - | 111 W/m² | - |
| 1788607612 | 14.44° C | 89% | 1014.5 hPa | 0 mm | - | 111 W/m² | - |
| 1788607400 | 14.44° C | 87% | 1014.5 hPa | 0 mm | - | 60 W/m² | - |
| 1788607312 | 14.44° C | 87% | 1014.5 hPa | 0 mm | - | 60 W/m² | - |
| 1788607092 | 14.44° C | 84% | 1014.8 hPa | 0 mm | - | 46 W/m² | - |
| 1788607011 | 14.44° C | 84% | 1014.8 hPa | 0 mm | - | 46 W/m² | - |
| 1788606711 | 16.11° C | 78% | 1014.8 hPa | 0 mm | - | 58 W/m² | - |
| 1788606483 | 18.33° C | 70% | 1014.6 hPa | 0 mm | - | 65 W/m² | - |
| 1788606387 | 18.33° C | 70% | 1014.6 hPa | 0 mm | - | 65 W/m² | - |
| 1788606184 | 18.33° C | 69% | 1014.1 hPa | 0 mm | - | 199 W/m² | - |
* Rain latest hour (hover to see other rain measurements)
** Current wind speed in m/s (hover to see current wind gust speed)